Simultaneous Nadir Overpasses (SNOs) Predictions

Prediction of SNOs between GOES-15 and LANDSAT-8 Satellite Orbit:

Table of predicted SNOs for the next 14.0 days since TLE Epoch: 10/24/2025
Index Date Time (GOES-15) GOES-15 Lat,Lon LANDSAT-8 Lat,Lon Distance(km) Time Diff (sec)
1 10/26/2025 18:08:28 -0.65, 61.58 -0.67, 61.45 14.46 80
2 10/28/2025 17:53:37 -0.67, 61.62 -0.08, 64.42 317.82 80
3 10/29/2025 06:14:53 0.65, 61.53 1.16, 59.26 259.53 80
4 10/31/2025 06:05:23 0.66, 61.57 0.50, 62.20 72.57 80
5 11/02/2025 05:53:11 0.66, 61.61 -0.07, 65.17 404.53 80
6 11/02/2025 18:11:55 -0.64, 61.71 -0.99, 59.97 197.20 80
7 11/04/2025 18:02:24 -0.64, 61.75 -0.40, 62.93 134.00 80
8 11/05/2025 06:20:59 0.62, 61.69 1.47, 57.77 445.47 80
9 11/06/2025 17:50:12 -0.65, 61.81 0.21, 65.90 464.54 80
10 11/07/2025 06:08:47 0.63, 61.74 0.86, 60.73 114.94 80
